Location: Limoges
(45.8354°N, 1.2645°E)
Time: 19:00:58
(UTC+02:00)

Courier 1B Rocket - Pass Details

Date: 28 February 2024
Orbit: 920 x 1201 km, 28.2° (Epoch: 20 April)

Event Time Altitude Azimuth Distance (km) Brightness Sun altitude
Rises 06:20:25 0° 244° (WSW) 3,554 - -14.0°
Exits shadow 06:23:40 - 224° (SW) 2,845 7.0 -13.5°
Reaches altitude 10° 06:25:52 10° 205° (SSW) 2,602 7.0 -13.1°
Maximum altitude 06:26:49 10° 196° (SSW) 2,578 7.0 -12.9°
Drops below altitude 10° 06:27:47 10° 187° (S) 2,606 7.2 -12.8°
Sets 06:33:17 0° 148° (SSE) 3,580 8.4 -11.8°
